[Date Prev][Date Next][Thread Prev][Thread Next] - [Date Index][Thread Index][Author Index]

2 Line ISS Keps 7-26



ISS
1 25544U 98067A   04208.30996530  .00028687  00000-0  23560-3 0  3038
2 25544  51.6315 126.1321 0006368  51.9840  40.9572 15.70183781324466
----
Via the sarex mailing list at AMSAT.ORG courtesy of AMSAT-NA.
To unsubscribe, send "unsubscribe sarex" to Majordomo@amsat.org



AMSAT Top AMSAT Home